Weather History for TNCB - November, 2013

Change the Weather History Date:

Sunday, November 24, 2013

  Actual Average Record
Temperature  
Mean Temperature 82 °F -  
Max Temperature 87 °F 85 °F 91 °F (2006)
Min Temperature 77 °F 77 °F 73 °F (2010)
Cooling Degree Days 17    
Growing Degree Days 32 (Base 50)    
Moisture  
Dew Point 75 °F    
Average Humidity 80    
Maximum Humidity 94    
Minimum Humidity 64    
Precipitation  
Precipitation 0.00 in - - ()
Sea Level Pressure  
Sea Level Pressure 29.82 in    
Wind  
Wind Speed 8 mph ()    
Max Wind Speed 15 mph    
Max Gust Speed -    
Visibility 6.2 miles    
Events      
Averages and records for this station are not official NWS values.
T = Trace of Precipitation, MM = Missing Value Source: Averaged Metar Reports

Daily Weather History Graph

Daily Weather History Graph

Search for Another Location

Airport or City:

Trip Planner

Search our weather history database for the weather conditions in past years. The results will help you decide how hot, cold, wet, or windy it might be!

Date:

Astronomy

Nov. 24, 2013 Rise Set
Actual Time 6:34 AM AST 6:04 PM AST
Civil Twilight 6:12 AM AST 6:27 PM AST
Nautical Twilight 5:46 AM AST 6:53 PM AST
Astronomical Twilight 5:20 AM AST 7:19 PM AST
Moon 11:54 PM AST (11/24) 11:48 AM AST (11/24)
Length of Visible Light 12h 15m
Length of Day
11h 30m
Waning Gibbous, 61% of the Moon is Illuminated
Nov 24
Waning Gibbous
Nov 25
Last Quarter
Dec 2
New
Dec 9
First Quarter
Dec 17
Full

Hourly Weather History & Observations

Time (AST) Temp. Heat Index Dew Point Humidity Pressure Visibility Wind Dir Wind Speed Gust Speed Precip Events Conditions
12:00 AM 80.6 °F 85.4 °F 73.4 °F 79% 29.83 in - East 10.4 mph - N/A   Unknown
1:00 AM 78.8 °F - 75.2 °F 89% 29.83 in - East 8.1 mph - N/A   Unknown
2:00 AM 78.8 °F - 75.2 °F 89% 29.80 in - ENE 8.1 mph - N/A   Unknown
3:00 AM 78.8 °F - 75.2 °F 89% 29.80 in - ENE 6.9 mph - N/A   Unknown
4:00 AM 78.8 °F - 75.2 °F 89% 29.80 in - ENE 6.9 mph - N/A   Unknown
5:00 AM 78.8 °F - 75.2 °F 89% 29.80 in - East 5.8 mph - N/A   Unknown
6:00 AM 77.0 °F - 75.2 °F 94% 29.80 in - East 5.8 mph - N/A   Unknown
6:55 AM 77.0 °F - 75.2 °F 94% 29.83 in - East 3.5 mph - N/A   Unknown
7:55 AM 82.4 °F 89.5 °F 75.2 °F 79% 29.83 in 6.2 mi ENE 8.1 mph - N/A   Partly Cloudy
8:55 AM 84.2 °F 92.3 °F 75.2 °F 74% 29.86 in 6.2 mi ENE 13.8 mph - N/A   Scattered Clouds
9:25 AM 84.2 °F 92.3 °F 75.2 °F 74% 29.86 in 6.2 mi East 15.0 mph - N/A   Scattered Clouds
11:00 AM 85 °F - 74 °F 64% 29.89 in - East 13.4 mph - -  
11:55 AM 84.2 °F 92.3 °F 75.2 °F 74% 29.86 in 6.2 mi East 13.8 mph - N/A   Scattered Clouds
1:00 PM 87.8 °F 99.7 °F 77.0 °F 70% 29.83 in 6.2 mi East 11.5 mph - N/A   Scattered Clouds
2:00 PM 86.0 °F 95.1 °F 75.2 °F 70% 29.83 in 6.2 mi East 13.8 mph - N/A   Scattered Clouds
3:00 PM 86.0 °F 95.1 °F 75.2 °F 70% 29.80 in 6.2 mi East 12.7 mph - N/A   Scattered Clouds
4:00 PM 84.2 °F 94.1 °F 77.0 °F 79% 29.80 in - East 10.4 mph - N/A   Unknown
5:00 PM 84.2 °F 92.3 °F 75.2 °F 74% 29.80 in 6.2 mi ENE 12.7 mph - N/A   Scattered Clouds
6:00 PM 82.4 °F 89.5 °F 75.2 °F 79% 29.80 in - East 11.5 mph - N/A   Unknown
7:00 PM 82.4 °F 89.5 °F 75.2 °F 79% 29.80 in - ENE 11.5 mph - N/A   Unknown
8:00 PM 82.4 °F 89.5 °F 75.2 °F 79% 29.83 in - ENE 9.2 mph - N/A   Unknown
9:00 PM 82.4 °F 89.5 °F 75.2 °F 79% 29.86 in 6.2 mi ENE 9.2 mph - N/A   Scattered Clouds